Weather History for Norwood, MA

Change the Weather History Date:

Monday, November 19, 2012

  Actual Average Record
Temperature  
Mean Temperature 36 °F -  
Max Temperature 50 °F 48 °F 62 °F (2001)
Min Temperature 21 °F 28 °F 12 °F (1997)
Degree Days  
Heating Degree Days 30    
Moisture  
Dew Point 27 °F    
Average Humidity 82    
Maximum Humidity 96    
Minimum Humidity 58    
Precipitation  
Precipitation 0.00 in - - ()
Sea Level Pressure  
Sea Level Pressure 30.42 in    
Wind  
Wind Speed 1 mph (NNE)    
Max Wind Speed 8 mph    
Max Gust Speed -    
Visibility 6 miles    
Events Fog    
Averages and records for this station are not official NWS values.
T = Trace of Precipitation, MM = Missing Value Source: NWS Daily Summary

Daily Weather History Graph

Daily Weather History Graph

Search for Another Location

Airport:

Trip Planner

Search our weather history database for the weather conditions in past years. The results will help you decide how hot, cold, wet, or windy it might be!

Date:

Astronomy

Nov. 19, 2012 Rise Set
Actual Time 6:40 AM EST 4:19 PM EST
Civil Twilight 6:10 AM EST 4:49 PM EST
Nautical Twilight 5:35 AM EST 5:24 PM EST
Astronomical Twilight 5:02 AM EST 5:57 PM EST
Moon 11:39 AM EST (11/19) 10:46 PM EST (11/19)
Length of Visible Light 10h 39m
Length of Day
9h 39m
Waxing Crescent, 40% of the Moon is Illuminated
Nov 19
Waxing Crescent
Nov 20
First Quarter
Nov 28
Full
Dec 6
Last Quarter
Dec 13
New

Hourly Weather History & Observations

Time (EST) Temp. Windchill Dew Point Humidity Pressure Visibility Wind Dir Wind Speed Gust Speed Precip Events Conditions
12:53 AM 25.0 °F - 23.0 °F 92% 30.61 in 6.0 mi Calm Calm - N/A   Clear
1:28 AM 26.6 °F - 24.8 °F 93% 30.61 in 8.0 mi Calm Calm - N/A   Mostly Cloudy
1:53 AM 26.1 °F - 24.1 °F 92% 30.60 in 9.0 mi Calm Calm - N/A   Mostly Cloudy
2:53 AM 26.1 °F - 23.0 °F 88% 30.59 in 10.0 mi Calm Calm - N/A   Scattered Clouds
3:53 AM 24.1 °F - 21.0 °F 88% 30.57 in 10.0 mi Calm Calm - N/A   Partly Cloudy
4:31 AM 24.8 °F - 21.2 °F 86% 30.56 in 9.0 mi Calm Calm - N/A   Mostly Cloudy
4:53 AM 23.0 °F - 21.0 °F 92% 30.56 in 8.0 mi Calm Calm - N/A   Mostly Cloudy
5:07 AM 24.8 °F - 21.2 °F 86% 30.55 in 7.0 mi Calm Calm - N/A   Partly Cloudy
5:53 AM 24.1 °F - 21.0 °F 88% 30.55 in 9.0 mi Calm Calm - N/A   Clear
6:53 AM 21.9 °F - 19.0 °F 89% 30.55 in 10.0 mi Calm Calm - N/A   Clear
7:53 AM 30.9 °F - 26.1 °F 82% 30.55 in 10.0 mi Calm Calm - N/A   Partly Cloudy
8:09 AM 32.0 °F - 26.6 °F 80% 30.54 in 10.0 mi Calm Calm - N/A   Mostly Cloudy
8:53 AM 37.0 °F 32.4 °F 28.0 °F 70% 30.53 in 10.0 mi North 5.8 mph - N/A   Mostly Cloudy
9:01 AM 37.4 °F 32.1 °F 28.4 °F 70% 30.52 in 10.0 mi North 6.9 mph - N/A   Scattered Clouds
9:53 AM 43.0 °F 40.3 °F 30.0 °F 60% 30.51 in 10.0 mi NNW 4.6 mph - N/A   Clear
10:53 AM 46.0 °F 43.1 °F 32.0 °F 58% 30.48 in 10.0 mi Variable 5.8 mph - N/A   Clear
11:53 AM 48.9 °F - 35.1 °F 59% 30.45 in 10.0 mi ENE 8.1 mph - N/A   Clear
12:25 PM 48.2 °F - 35.6 °F 62% 30.43 in 10.0 mi NE 8.1 mph - N/A   Mostly Cloudy
12:53 PM 48.0 °F - 35.1 °F 61% 30.43 in 10.0 mi NE 5.8 mph - N/A   Scattered Clouds
1:08 PM 50.0 °F - 35.6 °F 58% 30.41 in 10.0 mi ENE 6.9 mph - N/A   Mostly Cloudy
1:23 PM 48.2 °F - 35.6 °F 62% 30.41 in 10.0 mi NNE 8.1 mph - N/A   Scattered Clouds
1:53 PM 46.9 °F - 35.1 °F 63% 30.41 in 10.0 mi NE 6.9 mph - N/A   Partly Cloudy
2:53 PM 46.9 °F - 35.1 °F 63% 30.40 in 10.0 mi NE 4.6 mph - N/A   Partly Cloudy
3:53 PM 45.0 °F 42.6 °F 35.1 °F 68% 30.38 in 10.0 mi NE 4.6 mph - N/A   Clear
4:53 PM 39.9 °F - 34.0 °F 79% 30.38 in 10.0 mi Calm Calm - N/A   Clear
5:53 PM 35.1 °F - 30.9 °F 85% 30.37 in 10.0 mi Calm Calm - N/A   Clear
6:53 PM 30.0 °F - 27.0 °F 88% 30.36 in 10.0 mi Calm Calm - N/A   Clear
7:42 PM 28.4 °F - 24.8 °F 86% 30.34 in 1.5 mi Calm Calm - N/A   Clear
7:50 PM 28.4 °F - 24.8 °F 86% 30.34 in 0.5 mi Calm Calm - N/A Fog Light Freezing Fog
7:53 PM 28.9 °F - 26.1 °F 89% 30.34 in 0.5 mi Calm Calm - N/A Fog Light Freezing Fog
8:00 PM 28.4 °F - 26.6 °F 93% 30.33 in 0.2 mi Calm Calm - N/A Fog Light Freezing Fog
8:33 PM 28.4 °F - 24.8 °F 86% 30.32 in 1.2 mi Calm Calm - N/A   Partly Cloudy
8:38 PM 28.4 °F - 26.6 °F 93% 30.32 in 3.0 mi Calm Calm - N/A   Partly Cloudy
8:43 PM 26.6 °F - 24.8 °F 93% 30.32 in 1.8 mi Calm Calm - N/A   Clear
8:53 PM 27.0 °F - 25.0 °F 92% 30.32 in 1.0 mi Calm Calm - N/A   Clear
8:59 PM 28.4 °F - 24.8 °F 86% 30.31 in 3.0 mi Calm Calm - N/A   Clear
9:21 PM 26.6 °F - 24.8 °F 93% 30.30 in 1.5 mi Calm Calm - N/A   Clear
9:30 PM 26.6 °F - 24.8 °F 93% 30.30 in 0.8 mi Calm Calm - N/A   Mist
9:53 PM 26.1 °F - 24.1 °F 92% 30.30 in 1.0 mi Calm Calm - N/A   Mist
10:02 PM 26.6 °F - 24.8 °F 93% 30.30 in 0.5 mi Calm Calm - N/A Fog Light Freezing Fog
10:53 PM 26.1 °F - 24.1 °F 92% 30.28 in 0.2 mi Calm Calm - N/A Fog Light Freezing Fog
11:09 PM 24.8 °F - 23.0 °F 93% 30.28 in 1.5 mi Calm Calm - N/A   Partly Cloudy
11:25 PM 24.8 °F - 21.2 °F 86% 30.28 in 3.0 mi Calm Calm - N/A   Clear
11:30 PM 24.8 °F - 21.2 °F 86% 30.28 in 2.0 mi Calm Calm - N/A   Partly Cloudy
11:32 PM 24.8 °F - 23.0 °F 93% 30.28 in 0.8 mi Calm Calm - N/A   Mist
11:53 PM 25.0 °F - 24.1 °F 96% 30.28 in 0.5 mi Calm Calm - N/A Fog Light Freezing Fog